Portada
METAR-TAF:

METAR-TAF

Aeroports :

Orange Municipal Airport

Orange, Massachusetts, Estats Units d'Amèrica

latitud: 42-34-18N, longitud: 072-16-39W, altitud: 169 m

Observació

L'informe es va fer fa 50 minuts, a les 01:52 UTC
Vent 8 kt del Oest
Temperatura -7°C
Humitat 41%
Pressió 1016 hPa
Visibilitat: 16.1 km
Cel clar

METAR: KORE 030152Z AUTO 27008KT 10SM CLR M07/M18 A3000 RMK AO2 SLP170 T10671183

Hora: 21:42 (02:42 UTC)


TAF: manca

Observacions i pronòstics meteorològics de més de 4000 aeroports (METAR i TAF).

Les estacions disponibles són els punts grocs i vermells al mapa.

Posi el ratolí al punt desitjat per veure el nom de l'estació.

Feu clic per veure les observacions i els pronòstics meteorològics.

Per canviar el mapa: feu clic els botons verds amb una creu de color negre per apropar; al botó verd amb un guió per allunyar la imatge; o en les fletxes verdes per a mapes adjacents.


METAR-TAF: